This is the latest recevied weather packets stored in our database for station/object WX9WTF. If no packets are shown the sender has not sent any weather packets the latest 10 day(s).
| Time | Temp. | Humidity | Pressure | Rain* | Wind** | Luminosity | Snow |
|---|---|---|---|---|---|---|---|
| 1777481919 | 13.89° C | 63% | 1021.8 hPa | 0 mm | - | 361 W/m² | - |
| 1777481616 | 13.89° C | 64% | 1021.8 hPa | 0 mm | - | 343 W/m² | - |
| 1777481313 | 13.89° C | 62% | 1021.7 hPa | 0 mm | - | 282 W/m² | - |
| 1777481009 | 13.89° C | 63% | 1022 hPa | 0 mm | - | 775 W/m² | - |
| 1777480706 | 14.44° C | 61% | 1022 hPa | 0 mm | - | 930 W/m² | - |
| 1777480403 | 13.89° C | 63% | 1021.7 hPa | 0 mm | - | 971 W/m² | - |
| 1777480099 | 13.33° C | 63% | 1021.8 hPa | 0 mm | - | 889 W/m² | - |
| 1777479796 | 13.33° C | 66% | 1021.7 hPa | 0 mm | - | 833 W/m² | - |
| 1777479493 | 13.33° C | 65% | 1021.8 hPa | 0 mm | - | 211 W/m² | - |
| 1777479190 | 14.44° C | 64% | 1021.8 hPa | 0 mm | - | 930 W/m² | - |
| 1777478887 | 14.44° C | 62% | 1021.7 hPa | 0 mm | - | 605 W/m² | - |
| 1777478583 | 14.44° C | 64% | 1021.6 hPa | 0 mm | - | 859 W/m² | - |
| 1777478280 | 13.33° C | 65% | 1021.6 hPa | 0 mm | - | 844 W/m² | - |
| 1777477976 | 13.33° C | 65% | 1021.6 hPa | 0 mm | - | 796 W/m² | - |
| 1777477672 | 12.78° C | 64% | 1021.3 hPa | 0 mm | - | 702 W/m² | - |
| 1777477369 | 13.33° C | 67% | 1021.5 hPa | 0 mm | - | 746 W/m² | - |
| 1777477065 | 13.33° C | 68% | 1021.3 hPa | 0 mm | - | 746 W/m² | - |
| 1777476763 | 13.33° C | 66% | 1021.6 hPa | 0 mm | - | 730 W/m² | - |
| 1777476459 | 13.33° C | 67% | 1021.7 hPa | 0 mm | - | 717 W/m² | - |
| 1777476156 | 13.33° C | 67% | 1021.5 hPa | 0 mm | - | 670 W/m² | - |
| 1777475852 | 12.78° C | 68% | 1021.2 hPa | 0 mm | - | 650 W/m² | - |
| 1777475548 | 12.78° C | 65% | 1021.3 hPa | 0 mm | - | 624 W/m² | - |
| 1777475245 | 13.33° C | 66% | 1021.2 hPa | 0 mm | - | 619 W/m² | - |
| 1777474940 | 12.78° C | 67% | 1021.5 hPa | 0 mm | - | 604 W/m² | - |
| 1777474635 | 13.33° C | 65% | 1021.2 hPa | 0 mm | - | 578 W/m² | - |
* Rain latest hour (hover to see other rain measurements)
** Current wind speed in m/s (hover to see current wind gust speed)